KAL231 RKSI-PANC

Flight info

Callsign KAL231
Flight time N/A
Altitude 35000
Route EGOBA2H EGOBA Y697 KAE Y437 TENAS L512 GTC Y512 OATIS OTR3 PUTER A590 PLADO/N0490F370 A590 HAMND NEELL7
Aircraft B77L/H-SDE1E2E3FGHIJ2J3J4J5M1RWXY/LB1D1

Departure

Time N/A
Airport Incheon International Airport (RKSI)

Arrival

Time 2026-05-06 20:13
Airport Ted Stevens Anchorage International Airport (PANC)
Time Latitude Longitude Altitude Speed Heading
2026-05-06 15:41 44.68563 154.14236 34992 ft 520 kts 43°
2026-05-06 15:42 44.73358 154.21849 34994 ft 520 kts 43°
2026-05-06 15:42 44.78152 154.29480 34989 ft 520 kts 43°
2026-05-06 15:43 44.82945 154.37129 34990 ft 520 kts 43°
2026-05-06 15:43 44.87730 154.44809 35010 ft 522 kts 43°
2026-05-06 15:44 44.92468 154.52588 34992 ft 523 kts 44°
2026-05-06 15:44 44.97163 154.60363 34988 ft 523 kts 44°
2026-05-06 15:45 45.01878 154.68178 34980 ft 524 kts 44°
2026-05-06 15:45 45.06613 154.76029 34989 ft 524 kts 44°
2026-05-06 15:46 45.11346 154.83894 34980 ft 525 kts 44°
2026-05-06 15:46 45.16070 154.91766 34974 ft 525 kts 44°
2026-05-06 15:47 45.20794 154.99662 34997 ft 525 kts 44°
2026-05-06 15:47 45.25384 155.07353 34977 ft 526 kts 44°
2026-05-06 15:48 45.30113 155.15301 34968 ft 526 kts 44°
2026-05-06 15:48 45.34846 155.23280 34968 ft 527 kts 44°
2026-05-06 15:49 45.39546 155.31225 34970 ft 527 kts 44°
2026-05-06 15:49 45.44267 155.39228 34968 ft 527 kts 44°
2026-05-06 15:50 45.48963 155.47212 34956 ft 527 kts 44°
2026-05-06 15:50 45.53674 155.55243 34969 ft 527 kts 44°
2026-05-06 15:51 45.58386 155.63299 34968 ft 529 kts 44°
2026-05-06 15:51 45.63102 155.71385 34963 ft 529 kts 44°
2026-05-06 15:52 45.67791 155.79447 34960 ft 530 kts 44°
2026-05-06 15:52 45.72509 155.87585 34956 ft 531 kts 44°
2026-05-06 15:53 45.77224 155.95741 34949 ft 531 kts 44°
2026-05-06 15:53 45.81813 156.03702 34952 ft 531 kts 44°
2026-05-06 15:54 45.86520 156.11891 34950 ft 532 kts 44°
2026-05-06 15:54 45.91218 156.20089 34958 ft 532 kts 44°
2026-05-06 15:55 45.95918 156.28313 34944 ft 532 kts 44°
2026-05-06 15:55 46.00577 156.36489 34937 ft 532 kts 44°
2026-05-06 15:56 46.05273 156.44755 34941 ft 533 kts 44°
2026-05-06 15:56 46.09971 156.53050 34940 ft 534 kts 44°
2026-05-06 15:57 46.14663 156.61359 34931 ft 534 kts 44°
2026-05-06 15:57 46.19314 156.69622 34943 ft 534 kts 44°
2026-05-06 15:58 46.24000 156.77968 34929 ft 535 kts 44°
2026-05-06 15:58 46.28682 156.86334 34927 ft 535 kts 44°
2026-05-06 15:59 46.33363 156.94723 34923 ft 535 kts 44°
2026-05-06 15:59 46.37922 157.02919 34922 ft 536 kts 44°
2026-05-06 16:00 46.42569 157.11297 34915 ft 536 kts 44°
2026-05-06 16:00 46.47239 157.19743 34918 ft 536 kts 44°
2026-05-06 16:01 46.51899 157.28196 34924 ft 536 kts 44°
2026-05-06 16:01 46.56552 157.36663 34912 ft 537 kts 44°
2026-05-06 16:02 46.61202 157.45150 34943 ft 537 kts 44°
2026-05-06 16:02 46.65865 157.53686 34909 ft 537 kts 44°
2026-05-06 16:03 46.70480 157.62162 34902 ft 537 kts 44°
2026-05-06 16:03 46.75117 157.70704 34898 ft 536 kts 44°
2026-05-06 16:04 46.79739 157.79245 34897 ft 536 kts 44°
2026-05-06 16:04 46.84362 157.87813 34913 ft 535 kts 44°
2026-05-06 16:05 46.88937 157.96317 34896 ft 536 kts 44°
2026-05-06 16:05 46.93411 158.04658 34892 ft 536 kts 44°
2026-05-06 16:06 46.98011 158.13261 34898 ft 537 kts 43°
2026-05-06 16:06 47.02607 158.21885 34894 ft 538 kts 43°
2026-05-06 16:07 47.07184 158.30501 34887 ft 539 kts 43°
2026-05-06 16:07 47.11783 158.39187 34884 ft 539 kts 43°
2026-05-06 16:08 47.16390 158.47914 34883 ft 539 kts 44°
2026-05-06 16:08 47.20206 158.55163 34889 ft 539 kts 43°
2026-05-06 16:09 47.24802 158.63921 34872 ft 540 kts 44°
2026-05-06 16:09 47.29384 158.72679 34876 ft 539 kts 44°
2026-05-06 16:10 47.33957 158.81447 34901 ft 539 kts 44°
2026-05-06 16:10 47.38526 158.90235 34878 ft 540 kts 44°
2026-05-06 16:11 47.43061 158.98988 34873 ft 540 kts 44°
2026-05-06 16:11 47.47512 159.07605 34871 ft 540 kts 44°
2026-05-06 16:12 47.52062 159.16441 34868 ft 540 kts 44°
2026-05-06 16:12 47.56607 159.25295 34864 ft 540 kts 44°
2026-05-06 16:13 47.61144 159.34163 34858 ft 540 kts 44°
2026-05-06 16:13 47.65641 159.42982 34894 ft 540 kts 44°
2026-05-06 16:14 47.70178 159.51907 34864 ft 542 kts 44°
2026-05-06 16:14 47.74714 159.60858 34856 ft 543 kts 44°
2026-05-06 16:15 47.79248 159.69837 34852 ft 543 kts 44°
2026-05-06 16:15 47.83781 159.78846 34867 ft 543 kts 44°
2026-05-06 16:16 47.88314 159.87881 34853 ft 544 kts 44°
2026-05-06 16:16 47.92841 159.96936 34839 ft 544 kts 44°
2026-05-06 16:17 47.97219 160.05721 34834 ft 544 kts 44°
2026-05-06 16:17 48.01716 160.14778 34882 ft 544 kts 44°
2026-05-06 16:18 48.06228 160.23888 34842 ft 545 kts 44°
2026-05-06 16:18 48.10735 160.33024 34831 ft 545 kts 44°
2026-05-06 16:19 48.15228 160.42160 34825 ft 545 kts 44°
2026-05-06 16:19 48.19714 160.51315 34840 ft 545 kts 44°
2026-05-06 16:20 48.24170 160.60437 34821 ft 544 kts 44°
2026-05-06 16:20 48.28633 160.69613 34820 ft 544 kts 45°
2026-05-06 16:21 48.32988 160.78938 34838 ft 545 kts 46°
2026-05-06 16:21 48.37278 160.88347 34841 ft 545 kts 47°
2026-05-06 16:22 48.41570 160.97766 34812 ft 544 kts 47°
2026-05-06 16:22 48.45727 161.06872 34805 ft 544 kts 47°
2026-05-06 16:23 48.50018 161.16277 34820 ft 543 kts 47°
2026-05-06 16:23 48.54280 161.25657 34797 ft 542 kts 47°
2026-05-06 16:24 48.58516 161.35015 34801 ft 543 kts 47°
2026-05-06 16:24 48.60653 161.39744 34965 ft 546 kts 47°
2026-05-06 16:24 48.62790 161.44484 35370 ft 543 kts 47°
2026-05-06 16:25 48.64907 161.49185 35905 ft 537 kts 48°
2026-05-06 16:25 48.67002 161.53839 36437 ft 532 kts 49°
2026-05-06 16:25 48.69078 161.58462 36829 ft 530 kts 49°
2026-05-06 16:25 48.71161 161.63102 36779 ft 534 kts 49°
2026-05-06 16:26 48.75314 161.72397 36778 ft 530 kts 49°
2026-05-06 16:26 48.79399 161.81592 36797 ft 527 kts 50°
2026-05-06 16:27 48.83488 161.90817 36780 ft 526 kts 50°
2026-05-06 16:27 48.87555 162.00020 36774 ft 525 kts 50°
2026-05-06 16:28 48.91531 162.09047 36775 ft 525 kts 50°
2026-05-06 16:28 48.95597 162.18309 36777 ft 526 kts 50°
2026-05-06 16:29 48.99637 162.27545 36771 ft 528 kts 50°
2026-05-06 16:29 49.03693 162.36851 36766 ft 529 kts 50°
2026-05-06 16:30 49.07101 162.44699 36764 ft 530 kts 50°
2026-05-06 16:30 49.11835 162.55635 36758 ft 532 kts 51°
2026-05-06 16:31 49.15908 162.65080 36753 ft 532 kts 51°
2026-05-06 16:31 49.19976 162.74547 36750 ft 532 kts 51°
2026-05-06 16:32 49.24032 162.84021 36742 ft 532 kts 51°
2026-05-06 16:32 49.28079 162.93507 36751 ft 532 kts 51°
2026-05-06 16:33 49.31999 163.02726 36743 ft 531 kts 51°
2026-05-06 16:34 49.38042 163.17001 36731 ft 530 kts 51°
2026-05-06 16:34 49.42045 163.26502 36749 ft 530 kts 51°
2026-05-06 16:35 49.46045 163.36024 36734 ft 530 kts 52°
2026-05-06 16:35 49.50035 163.45562 36733 ft 530 kts 52°
2026-05-06 16:36 49.54019 163.55118 36719 ft 530 kts 52°
2026-05-06 16:36 49.57970 163.64629 36746 ft 530 kts 52°
2026-05-06 16:37 49.61952 163.74248 36723 ft 531 kts 52°
2026-05-06 16:37 49.65922 163.83876 36706 ft 532 kts 52°
2026-05-06 16:38 49.69895 163.93546 36708 ft 533 kts 52°
2026-05-06 16:38 49.73738 164.02931 36729 ft 533 kts 53°
2026-05-06 16:39 49.77704 164.12654 36708 ft 534 kts 53°
2026-05-06 16:39 49.81665 164.22399 36706 ft 534 kts 53°
2026-05-06 16:40 49.85615 164.32155 36702 ft 534 kts 53°
2026-05-06 16:40 49.89527 164.41856 36708 ft 533 kts 53°
2026-05-06 16:41 49.93445 164.51606 36691 ft 531 kts 53°
2026-05-06 16:41 49.97349 164.61355 36688 ft 530 kts 53°
2026-05-06 16:42 50.01202 164.71013 36687 ft 529 kts 53°
2026-05-06 16:42 50.05065 164.80734 36696 ft 528 kts 54°
2026-05-06 16:43 50.08921 164.90475 36686 ft 527 kts 54°
2026-05-06 16:43 50.12731 165.00137 36682 ft 527 kts 54°
2026-05-06 16:44 50.16508 165.09748 36682 ft 527 kts 54°
2026-05-06 16:44 50.20320 165.19532 36693 ft 527 kts 55°
2026-05-06 16:45 50.24075 165.29307 36672 ft 527 kts 55°
2026-05-06 16:45 50.27833 165.39151 36671 ft 527 kts 55°
2026-05-06 16:46 50.31586 165.49008 36669 ft 527 kts 55°
2026-05-06 16:46 50.35336 165.58881 36666 ft 527 kts 55°
2026-05-06 16:47 50.39075 165.68764 36662 ft 527 kts 56°
2026-05-06 16:47 50.42786 165.78610 36662 ft 527 kts 56°
2026-05-06 16:48 50.46508 165.88526 36663 ft 527 kts 56°
2026-05-06 16:48 50.50223 165.98457 36684 ft 527 kts 56°
2026-05-06 16:49 50.53847 166.08184 36653 ft 527 kts 56°
2026-05-06 16:49 50.57520 166.18083 36651 ft 527 kts 56°
2026-05-06 16:50 50.61208 166.28058 36652 ft 526 kts 57°
2026-05-06 16:50 50.64881 166.38031 36648 ft 526 kts 57°
2026-05-06 16:51 50.68542 166.48012 36645 ft 525 kts 57°
2026-05-06 16:51 50.72171 166.57943 36648 ft 525 kts 57°
2026-05-06 16:52 50.75815 166.67952 36647 ft 525 kts 57°
2026-05-06 16:52 50.79446 166.77967 36654 ft 525 kts 57°
2026-05-06 16:53 50.83049 166.87939 36642 ft 525 kts 57°
2026-05-06 16:53 50.86657 166.97972 36640 ft 524 kts 57°
2026-05-06 16:54 50.90180 167.07801 36636 ft 524 kts 57°
2026-05-06 16:54 50.93772 167.17864 36631 ft 524 kts 57°
2026-05-06 16:55 50.97352 167.27933 36633 ft 523 kts 58°
2026-05-06 16:55 51.00309 167.36279 36630 ft 523 kts 58°
2026-05-06 16:56 51.04454 167.48027 36625 ft 523 kts 58°
2026-05-06 16:56 51.07402 167.56413 36625 ft 523 kts 58°
2026-05-06 16:57 51.11540 167.68234 36627 ft 522 kts 58°
2026-05-06 16:57 51.14474 167.76649 36625 ft 522 kts 58°
2026-05-06 16:58 51.17997 167.86787 36639 ft 522 kts 59°
2026-05-06 16:58 51.21489 167.96879 36623 ft 522 kts 59°
2026-05-06 16:59 51.24907 168.06799 36623 ft 521 kts 59°
2026-05-06 16:59 51.28391 168.16947 36618 ft 520 kts 59°
2026-05-06 17:00 51.31860 168.27095 36612 ft 520 kts 59°
2026-05-06 17:00 51.35294 168.37179 36616 ft 519 kts 59°
2026-05-06 17:01 51.38736 168.47330 36620 ft 518 kts 59°
2026-05-06 17:01 51.42169 168.57493 36615 ft 518 kts 59°
2026-05-06 17:02 51.45594 168.67675 36610 ft 518 kts 59°
2026-05-06 17:02 51.49001 168.77845 36609 ft 518 kts 60°
2026-05-06 17:03 51.52405 168.88047 36621 ft 517 kts 60°
2026-05-06 17:03 51.55793 168.98240 36607 ft 517 kts 60°
2026-05-06 17:04 51.59090 169.08205 36606 ft 516 kts 60°
2026-05-06 17:04 51.62454 169.18412 36607 ft 516 kts 60°
2026-05-06 17:05 51.65787 169.28564 36604 ft 516 kts 60°
2026-05-06 17:05 51.69128 169.38785 36609 ft 515 kts 61°
2026-05-06 17:06 51.72460 169.49019 36602 ft 515 kts 61°
2026-05-06 17:06 51.75783 169.59268 36604 ft 515 kts 61°
2026-05-06 17:07 51.79075 169.69465 36604 ft 515 kts 61°
2026-05-06 17:07 51.82377 169.79734 36602 ft 515 kts 61°
2026-05-06 17:08 51.85668 169.90013 36620 ft 514 kts 62°
2026-05-06 17:08 51.88908 170.00176 36608 ft 514 kts 62°
2026-05-06 17:09 51.92132 170.10332 36597 ft 514 kts 62°
2026-05-06 17:09 51.95396 170.20656 36607 ft 514 kts 62°
2026-05-06 17:10 51.98653 170.31003 36601 ft 514 kts 62°
2026-05-06 17:10 52.01883 170.41310 36599 ft 513 kts 62°
2026-05-06 17:11 52.05100 170.51619 36603 ft 513 kts 62°
2026-05-06 17:11 52.08315 170.61971 36598 ft 513 kts 62°
2026-05-06 17:12 52.11654 170.72222 36605 ft 512 kts 57°
2026-05-06 17:12 52.15882 170.81519 36595 ft 511 kts 48°
2026-05-06 17:13 52.20562 170.90228 36607 ft 511 kts 47°
2026-05-06 17:13 52.25259 170.98957 36602 ft 511 kts 48°
2026-05-06 17:14 52.29797 171.07524 36587 ft 510 kts 49°
2026-05-06 17:14 52.34378 171.16265 36593 ft 509 kts 49°
2026-05-06 17:15 52.38999 171.25123 36606 ft 511 kts 49°
2026-05-06 17:15 52.43620 171.34011 36604 ft 512 kts 49°
2026-05-06 17:16 52.48223 171.42889 36588 ft 509 kts 49°
2026-05-06 17:16 52.52815 171.51769 36578 ft 511 kts 50°
2026-05-06 17:17 52.57418 171.60707 36597 ft 513 kts 50°
2026-05-06 17:17 52.62033 171.69703 36596 ft 515 kts 50°
2026-05-06 17:18 52.66618 171.78673 36603 ft 514 kts 50°
2026-05-06 17:18 52.71209 171.87685 36592 ft 509 kts 50°
2026-05-06 17:19 52.75749 171.96624 36585 ft 508 kts 50°
2026-05-06 17:19 52.80177 172.05373 36588 ft 508 kts 51°
2026-05-06 17:20 52.84667 172.14293 36590 ft 507 kts 50°
2026-05-06 17:20 52.89178 172.23271 36597 ft 506 kts 51°
2026-05-06 17:21 52.93673 172.32249 36600 ft 506 kts 51°
2026-05-06 17:21 52.98156 172.41241 36594 ft 505 kts 51°
2026-05-06 17:22 53.02611 172.50207 36602 ft 504 kts 51°
2026-05-06 17:22 53.07071 172.59214 36597 ft 504 kts 51°
2026-05-06 17:23 53.11485 172.68163 36602 ft 503 kts 51°
2026-05-06 17:23 53.15921 172.77187 36598 ft 503 kts 51°
2026-05-06 17:24 53.20348 172.86226 36591 ft 502 kts 51°
2026-05-06 17:24 53.24757 172.95262 36598 ft 501 kts 52°
2026-05-06 17:25 53.29053 173.04096 36601 ft 501 kts 52°
2026-05-06 17:25 53.33439 173.13150 36603 ft 501 kts 52°
2026-05-06 17:26 53.37792 173.22168 36602 ft 501 kts 52°
2026-05-06 17:26 53.42172 173.31276 36587 ft 501 kts 52°
2026-05-06 17:27 53.46542 173.40401 36602 ft 500 kts 52°
2026-05-06 17:27 53.50866 173.49460 36604 ft 500 kts 52°
2026-05-06 17:28 53.55036 173.58801 36614 ft 498 kts 58°
2026-05-06 17:28 53.58788 173.68618 36616 ft 498 kts 59°
2026-05-06 17:29 53.62487 173.78509 36598 ft 498 kts 59°
2026-05-06 17:29 53.66200 173.88398 36613 ft 498 kts 59°
2026-05-06 17:30 53.69893 173.98207 36622 ft 498 kts 59°
2026-05-06 17:30 53.73522 174.07861 36622 ft 498 kts 59°
2026-05-06 17:31 53.77224 174.17751 36617 ft 498 kts 59°
2026-05-06 17:31 53.80922 174.27671 36607 ft 498 kts 59°
2026-05-06 17:32 53.84602 174.37585 36617 ft 497 kts 59°
2026-05-06 17:32 53.88249 174.47451 36626 ft 496 kts 59°
2026-05-06 17:33 53.91917 174.57412 36629 ft 496 kts 59°
2026-05-06 17:33 53.95565 174.67360 36624 ft 496 kts 60°
2026-05-06 17:34 53.99202 174.77315 36622 ft 496 kts 60°
2026-05-06 17:34 54.02793 174.87184 36633 ft 495 kts 60°
2026-05-06 17:35 54.06413 174.97176 36633 ft 495 kts 60°
2026-05-06 17:35 54.09938 175.06942 36623 ft 495 kts 60°
2026-05-06 17:36 54.15320 175.21927 36630 ft 495 kts 61°
2026-05-06 17:36 54.18901 175.31956 36633 ft 494 kts 60°
2026-05-06 17:37 54.22477 175.41997 36640 ft 494 kts 61°
2026-05-06 17:37 54.26041 175.52051 36638 ft 494 kts 61°
2026-05-06 17:38 54.29594 175.62121 36655 ft 494 kts 61°
2026-05-06 17:38 54.33139 175.72205 36653 ft 494 kts 61°
2026-05-06 17:39 54.36673 175.82293 36650 ft 493 kts 62°
2026-05-06 17:39 54.40195 175.92397 36656 ft 493 kts 62°
2026-05-06 17:40 54.43587 176.02165 36666 ft 493 kts 62°
2026-05-06 17:40 54.47097 176.12310 36663 ft 492 kts 63°
2026-05-06 17:41 54.50569 176.22397 36680 ft 492 kts 63°
2026-05-06 17:41 54.54044 176.32521 36690 ft 491 kts 62°
2026-05-06 17:42 54.56929 176.40956 36703 ft 490 kts 63°
2026-05-06 17:42 54.60380 176.51110 36686 ft 491 kts 63°
2026-05-06 17:43 54.63829 176.61284 36707 ft 491 kts 62°
2026-05-06 17:43 54.67269 176.71465 36710 ft 491 kts 63°
2026-05-06 17:44 54.70705 176.81677 36710 ft 490 kts 64°
2026-05-06 17:44 54.74122 176.91894 36720 ft 489 kts 63°
2026-05-06 17:45 54.77412 177.01771 36739 ft 489 kts 63°
2026-05-06 17:45 54.80811 177.12004 36735 ft 489 kts 64°
2026-05-06 17:46 54.84196 177.22239 36753 ft 489 kts 64°
2026-05-06 17:46 54.87571 177.32490 36730 ft 489 kts 64°
2026-05-06 17:47 54.90932 177.42747 36759 ft 488 kts 64°
2026-05-06 17:47 54.94261 177.52943 36761 ft 487 kts 64°
2026-05-06 17:48 54.97600 177.63214 36773 ft 487 kts 65°
2026-05-06 17:48 55.00914 177.73454 36773 ft 486 kts 65°
2026-05-06 17:49 55.04226 177.83733 36764 ft 486 kts 65°
2026-05-06 17:49 55.07529 177.94021 36777 ft 485 kts 65°
2026-05-06 17:50 55.10724 178.04019 36802 ft 485 kts 64°
2026-05-06 17:50 55.14003 178.14325 36800 ft 485 kts 65°
2026-05-06 17:51 55.17273 178.24647 36817 ft 485 kts 65°
2026-05-06 17:51 55.20534 178.34987 36813 ft 485 kts 65°
2026-05-06 17:52 55.23767 178.45279 36808 ft 485 kts 65°
2026-05-06 17:52 55.27011 178.55660 36825 ft 484 kts 65°
2026-05-06 17:53 55.30242 178.66045 36829 ft 484 kts 65°
2026-05-06 17:53 55.33474 178.76454 36836 ft 484 kts 65°
2026-05-06 17:54 55.36707 178.86845 36841 ft 484 kts 65°
2026-05-06 17:54 55.39909 178.97177 36847 ft 483 kts 65°
2026-05-06 17:55 55.43039 179.07334 36848 ft 483 kts 65°
2026-05-06 17:55 55.46228 179.17739 36858 ft 483 kts 65°
2026-05-06 17:56 55.49411 179.28174 36862 ft 483 kts 66°
2026-05-06 17:56 55.52589 179.38634 36858 ft 482 kts 66°
2026-05-06 17:57 55.55750 179.49086 36855 ft 482 kts 66°
2026-05-06 17:57 55.58897 179.59538 36879 ft 482 kts 66°
2026-05-06 17:58 55.62040 179.70023 36887 ft 482 kts 66°
2026-05-06 17:58 55.65156 179.80463 36900 ft 482 kts 66°
2026-05-06 17:59 55.68282 179.90985 36911 ft 483 kts 66°
2026-05-06 17:59 55.71256 -179.98962 36908 ft 483 kts 66°
2026-05-06 18:00 55.74370 -179.88389 36917 ft 483 kts 66°
2026-05-06 18:00 55.77474 -179.77802 36916 ft 484 kts 66°
2026-05-06 18:01 55.80564 -179.67217 36916 ft 484 kts 66°
2026-05-06 18:01 55.83658 -179.56568 36920 ft 484 kts 66°
2026-05-06 18:02 55.86745 -179.45895 36923 ft 484 kts 66°
2026-05-06 18:02 55.89807 -179.35259 36930 ft 485 kts 67°
2026-05-06 18:03 55.93057 -179.23918 36938 ft 484 kts 67°
2026-05-06 18:03 55.96111 -179.13210 36936 ft 484 kts 67°
2026-05-06 18:04 55.99162 -179.02464 36955 ft 484 kts 67°
2026-05-06 18:04 56.02111 -178.92027 36956 ft 484 kts 67°
2026-05-06 18:05 56.05117 -178.81338 36937 ft 483 kts 67°
2026-05-06 18:05 56.08132 -178.70571 36954 ft 483 kts 67°
2026-05-06 18:06 56.11135 -178.59794 36976 ft 484 kts 67°
2026-05-06 18:06 56.14136 -178.48976 36974 ft 484 kts 67°
2026-05-06 18:07 56.17132 -178.38123 36980 ft 485 kts 67°
2026-05-06 18:07 56.20100 -178.27319 36963 ft 485 kts 67°
2026-05-06 18:08 56.23096 -178.16365 36987 ft 486 kts 67°
2026-05-06 18:08 56.26053 -178.05498 36992 ft 486 kts 67°
2026-05-06 18:09 56.28953 -177.94790 36993 ft 487 kts 67°
2026-05-06 18:09 56.31919 -177.83789 36993 ft 488 kts 67°
2026-05-06 18:10 56.34863 -177.72815 37015 ft 488 kts 67°
2026-05-06 18:10 56.37811 -177.61774 37012 ft 489 kts 67°
2026-05-06 18:11 56.40263 -177.52547 37007 ft 490 kts 67°
2026-05-06 18:11 56.43210 -177.41407 37014 ft 490 kts 67°
2026-05-06 18:12 56.46126 -177.30334 37014 ft 491 kts 67°
2026-05-06 18:12 56.49052 -177.19163 37027 ft 491 kts 68°
2026-05-06 18:13 56.51966 -177.07988 37010 ft 491 kts 67°
2026-05-06 18:13 56.54803 -176.97051 37028 ft 491 kts 68°
2026-05-06 18:14 56.57684 -176.85888 37031 ft 491 kts 68°
2026-05-06 18:14 56.60569 -176.74654 37041 ft 491 kts 68°
2026-05-06 18:15 56.63445 -176.63397 37044 ft 491 kts 68°
2026-05-06 18:15 56.66317 -176.52100 37044 ft 491 kts 68°
2026-05-06 18:16 56.69174 -176.40803 37046 ft 491 kts 68°
2026-05-06 18:16 56.72000 -176.29570 37053 ft 492 kts 68°
2026-05-06 18:17 56.74842 -176.18212 37059 ft 492 kts 68°
2026-05-06 18:17 56.77671 -176.06848 37063 ft 492 kts 68°
2026-05-06 18:18 56.80428 -175.95714 37075 ft 492 kts 68°
2026-05-06 18:18 56.83239 -175.84317 37059 ft 492 kts 68°
2026-05-06 18:19 56.86017 -175.72968 37075 ft 492 kts 68°
2026-05-06 18:19 56.88797 -175.61524 37080 ft 493 kts 68°
2026-05-06 18:20 56.91570 -175.50044 37087 ft 493 kts 68°
2026-05-06 18:20 56.94333 -175.38548 37087 ft 493 kts 68°
2026-05-06 18:21 56.97086 -175.27028 37079 ft 493 kts 68°
2026-05-06 18:21 56.99830 -175.15490 37094 ft 493 kts 68°
2026-05-06 18:22 57.02554 -175.03972 37100 ft 493 kts 68°
2026-05-06 18:22 57.05211 -174.92678 37098 ft 494 kts 68°
2026-05-06 18:23 57.07912 -174.81138 37103 ft 494 kts 68°
2026-05-06 18:23 57.10622 -174.69490 37103 ft 494 kts 68°
2026-05-06 18:24 57.13321 -174.57831 37098 ft 494 kts 68°
2026-05-06 18:24 57.16008 -174.46158 37113 ft 495 kts 68°
2026-05-06 18:25 57.18668 -174.34538 37115 ft 495 kts 68°
2026-05-06 18:25 57.21339 -174.22808 37121 ft 496 kts 68°
2026-05-06 18:26 57.23998 -174.11062 37117 ft 496 kts 68°
2026-05-06 18:26 57.26584 -173.99569 37118 ft 497 kts 68°
2026-05-06 18:27 57.29234 -173.87730 37128 ft 498 kts 68°
2026-05-06 18:27 57.31856 -173.75947 37126 ft 499 kts 68°
2026-05-06 18:28 57.34502 -173.64053 37128 ft 499 kts 67°
2026-05-06 18:28 57.37204 -173.52178 37128 ft 500 kts 67°
2026-05-06 18:29 57.39909 -173.40296 37129 ft 500 kts 67°
2026-05-06 18:29 57.42594 -173.28385 37138 ft 500 kts 67°
2026-05-06 18:30 57.45260 -173.16457 37141 ft 500 kts 68°
2026-05-06 18:30 57.47895 -173.04581 37146 ft 500 kts 67°
2026-05-06 18:31 57.50465 -172.92950 37141 ft 500 kts 67°
2026-05-06 18:31 57.53098 -172.80967 37144 ft 500 kts 67°
2026-05-06 18:32 57.55720 -172.68960 37142 ft 500 kts 67°
2026-05-06 18:32 57.58312 -172.57021 37146 ft 500 kts 67°
2026-05-06 18:33 57.60910 -172.44987 37152 ft 500 kts 67°
2026-05-06 18:33 57.63497 -172.32934 37153 ft 500 kts 68°
2026-05-06 18:34 57.66080 -172.20831 37153 ft 500 kts 68°
2026-05-06 18:34 57.68632 -172.08793 37165 ft 501 kts 67°
2026-05-06 18:35 57.71131 -171.96945 37156 ft 501 kts 67°
2026-05-06 18:35 57.73680 -171.84787 37156 ft 502 kts 67°
2026-05-06 18:36 57.76216 -171.72619 37158 ft 502 kts 67°
2026-05-06 18:36 57.78740 -171.60430 37158 ft 502 kts 67°
2026-05-06 18:37 57.81242 -171.48275 37158 ft 502 kts 67°
2026-05-06 18:37 57.83747 -171.36034 37162 ft 503 kts 67°
2026-05-06 18:38 57.86242 -171.23761 37165 ft 503 kts 67°
2026-05-06 18:38 57.88726 -171.11466 37163 ft 503 kts 67°
2026-05-06 18:39 57.91135 -170.99468 37176 ft 503 kts 67°
2026-05-06 18:40 57.94815 -170.81003 37173 ft 503 kts 67°
2026-05-06 18:40 57.97319 -170.68674 37174 ft 503 kts 65°
2026-05-06 18:41 57.99975 -170.56475 37167 ft 503 kts 65°
2026-05-06 18:41 58.02632 -170.44296 37169 ft 503 kts 65°
2026-05-06 18:42 58.05258 -170.32041 37169 ft 503 kts 65°
2026-05-06 18:42 58.07839 -170.19839 37172 ft 503 kts 66°
2026-05-06 18:43 58.10425 -170.07525 37186 ft 504 kts 65°
2026-05-06 18:43 58.12944 -169.95467 37174 ft 504 kts 65°
2026-05-06 18:44 58.15510 -169.83112 37173 ft 504 kts 65°
2026-05-06 18:44 58.18052 -169.70802 37175 ft 504 kts 65°
2026-05-06 18:45 58.20605 -169.58363 37174 ft 504 kts 65°
2026-05-06 18:45 58.23123 -169.46017 37174 ft 504 kts 66°
2026-05-06 18:46 58.25645 -169.33573 37164 ft 505 kts 65°
2026-05-06 18:46 58.28157 -169.21107 37182 ft 505 kts 66°
2026-05-06 18:47 58.30646 -169.08675 37186 ft 505 kts 66°
2026-05-06 18:47 58.33072 -168.96480 37177 ft 505 kts 66°
2026-05-06 18:48 58.35545 -168.83973 37178 ft 504 kts 66°
2026-05-06 18:48 58.38006 -168.71445 37183 ft 504 kts 66°
2026-05-06 18:49 58.40452 -168.58917 37176 ft 503 kts 66°
2026-05-06 18:49 58.42868 -168.46459 37180 ft 503 kts 66°
2026-05-06 18:50 58.45281 -168.33938 37179 ft 503 kts 66°
2026-05-06 18:50 58.47683 -168.21394 37179 ft 503 kts 67°
2026-05-06 18:51 58.50073 -168.08834 37200 ft 503 kts 67°
2026-05-06 18:51 58.52393 -167.96559 37182 ft 502 kts 67°
2026-05-06 18:52 58.54754 -167.83985 37174 ft 501 kts 67°
2026-05-06 18:52 58.57089 -167.71469 37176 ft 500 kts 68°
2026-05-06 18:53 58.59423 -167.58880 37176 ft 500 kts 68°
2026-05-06 18:53 58.61736 -167.46314 37177 ft 500 kts 68°
2026-05-06 18:54 58.64036 -167.33733 37174 ft 500 kts 68°
2026-05-06 18:54 58.66329 -167.21105 37168 ft 500 kts 68°
2026-05-06 18:55 58.68608 -167.08468 37169 ft 501 kts 68°
2026-05-06 18:55 58.70807 -166.96224 37172 ft 501 kts 68°
2026-05-06 18:56 58.73112 -166.83546 37171 ft 501 kts 68°
2026-05-06 18:56 58.75416 -166.70853 37172 ft 502 kts 68°
2026-05-06 18:57 58.77703 -166.58124 37171 ft 502 kts 68°
2026-05-06 18:57 58.79958 -166.45456 37169 ft 503 kts 68°
2026-05-06 18:58 58.82215 -166.32692 37169 ft 503 kts 68°
2026-05-06 18:58 58.84461 -166.19899 37168 ft 503 kts 69°
2026-05-06 18:59 58.86693 -166.07095 37178 ft 503 kts 69°
2026-05-06 18:59 58.88485 -165.96768 37169 ft 503 kts 69°
2026-05-06 19:00 58.90706 -165.83930 37155 ft 503 kts 69°
2026-05-06 19:00 58.92912 -165.71140 37170 ft 503 kts 69°
2026-05-06 19:01 58.95111 -165.58287 37165 ft 503 kts 69°
2026-05-06 19:01 58.97298 -165.45395 37149 ft 503 kts 69°
2026-05-06 19:02 58.99469 -165.32496 37151 ft 503 kts 69°
2026-05-06 19:02 59.01621 -165.19616 37175 ft 503 kts 69°
2026-05-06 19:03 59.03767 -165.06686 37176 ft 503 kts 69°
2026-05-06 19:03 59.05854 -164.94021 37161 ft 503 kts 70°
2026-05-06 19:04 59.07962 -164.81130 37159 ft 503 kts 70°
2026-05-06 19:04 59.10074 -164.68122 37157 ft 503 kts 70°
2026-05-06 19:05 59.12168 -164.55128 37158 ft 503 kts 70°
2026-05-06 19:05 59.14249 -164.42122 37170 ft 503 kts 70°
2026-05-06 19:06 59.16322 -164.29069 37166 ft 503 kts 70°
2026-05-06 19:06 59.18364 -164.16112 37162 ft 503 kts 70°
2026-05-06 19:07 59.20407 -164.03047 37176 ft 503 kts 70°
2026-05-06 19:07 59.22385 -163.90306 37160 ft 503 kts 70°
2026-05-06 19:08 59.24401 -163.77216 37167 ft 503 kts 71°
2026-05-06 19:08 59.26403 -163.64122 37168 ft 503 kts 71°
2026-05-06 19:09 59.28394 -163.50995 37166 ft 503 kts 71°
2026-05-06 19:09 59.30356 -163.37958 37166 ft 503 kts 71°
2026-05-06 19:10 59.32320 -163.24808 37166 ft 503 kts 71°
2026-05-06 19:10 59.34272 -163.11631 37167 ft 503 kts 71°
2026-05-06 19:11 59.36161 -162.98778 37182 ft 503 kts 71°
2026-05-06 19:11 59.38087 -162.85563 37173 ft 503 kts 72°
2026-05-06 19:12 59.39999 -162.72340 37168 ft 504 kts 72°
2026-05-06 19:12 59.41888 -162.59164 37175 ft 504 kts 72°
2026-05-06 19:13 59.43770 -162.45918 37173 ft 504 kts 72°
2026-05-06 19:13 59.45652 -162.32625 37174 ft 504 kts 71°
2026-05-06 19:14 59.47769 -162.19502 37173 ft 503 kts 69°
2026-05-06 19:14 59.50003 -162.06550 37175 ft 503 kts 69°
2026-05-06 19:15 59.52187 -161.93765 37185 ft 504 kts 69°
2026-05-06 19:15 59.54384 -161.80622 37180 ft 504 kts 69°
2026-05-06 19:16 59.56554 -161.67452 37170 ft 504 kts 70°
2026-05-06 19:16 59.58696 -161.54350 37171 ft 505 kts 70°
2026-05-06 19:17 59.60840 -161.41147 37146 ft 505 kts 70°
2026-05-06 19:17 59.62974 -161.27910 37139 ft 505 kts 70°
2026-05-06 19:18 59.65095 -161.14659 37117 ft 505 kts 70°
2026-05-06 19:18 59.67206 -161.01369 37126 ft 505 kts 70°
2026-05-06 19:19 59.69245 -160.88436 37113 ft 506 kts 70°
2026-05-06 19:19 59.71313 -160.75221 37081 ft 506 kts 71°
2026-05-06 19:20 59.73382 -160.61893 37078 ft 506 kts 71°
2026-05-06 19:20 59.75442 -160.48523 37094 ft 506 kts 71°
2026-05-06 19:21 59.77473 -160.35235 37098 ft 506 kts 71°
2026-05-06 19:21 59.79517 -160.21754 37100 ft 506 kts 71°
2026-05-06 19:22 59.81524 -160.08419 37099 ft 507 kts 71°
2026-05-06 19:22 59.83475 -159.95348 37119 ft 507 kts 71°
2026-05-06 19:23 59.85469 -159.81884 37114 ft 507 kts 72°
2026-05-06 19:23 59.87450 -159.68394 37119 ft 508 kts 72°
2026-05-06 19:24 59.89418 -159.54888 37126 ft 508 kts 72°
2026-05-06 19:24 59.91372 -159.41363 37128 ft 508 kts 72°
2026-05-06 19:25 59.93314 -159.27812 37133 ft 508 kts 72°
2026-05-06 19:25 59.95242 -159.14248 37126 ft 509 kts 72°
2026-05-06 19:26 59.97159 -159.00644 37145 ft 509 kts 72°
2026-05-06 19:26 59.98999 -158.87480 37125 ft 509 kts 72°
2026-05-06 19:27 60.00890 -158.73833 37111 ft 509 kts 72°
2026-05-06 19:27 60.02764 -158.60193 37119 ft 508 kts 73°
2026-05-06 19:28 60.04623 -158.46544 37115 ft 508 kts 73°
2026-05-06 19:28 60.06455 -158.32977 37115 ft 508 kts 73°
2026-05-06 19:29 60.08285 -158.19303 37110 ft 508 kts 73°
2026-05-06 19:29 60.10103 -158.05599 37119 ft 508 kts 73°
2026-05-06 19:30 60.11862 -157.92230 37126 ft 509 kts 73°
2026-05-06 19:30 60.13656 -157.78467 37115 ft 510 kts 73°
2026-05-06 19:31 60.15438 -157.64664 37117 ft 510 kts 73°
2026-05-06 19:31 60.18075 -157.44013 37112 ft 511 kts 74°
2026-05-06 19:32 60.19824 -157.30158 37111 ft 511 kts 74°
2026-05-06 19:32 60.21558 -157.16289 37108 ft 511 kts 74°
2026-05-06 19:33 60.23268 -157.02486 37108 ft 511 kts 74°
2026-05-06 19:33 60.24934 -156.88907 37101 ft 511 kts 74°
2026-05-06 19:34 60.26625 -156.74995 37099 ft 511 kts 75°
2026-05-06 19:34 60.28304 -156.61048 37098 ft 511 kts 75°
2026-05-06 19:35 60.29955 -156.47199 37085 ft 511 kts 75°
2026-05-06 19:35 60.31606 -156.33213 37083 ft 511 kts 75°
2026-05-06 19:36 60.33241 -156.19226 37083 ft 511 kts 75°
2026-05-06 19:36 60.34861 -156.05226 37079 ft 512 kts 75°
2026-05-06 19:37 60.36429 -155.91539 37077 ft 512 kts 75°
2026-05-06 19:37 60.37751 -155.79886 37079 ft 512 kts 75°
2026-05-06 19:38 60.39588 -155.63534 37071 ft 513 kts 76°
2026-05-06 19:38 60.41152 -155.49450 37056 ft 512 kts 76°
2026-05-06 19:39 60.42700 -155.35366 37065 ft 512 kts 76°
2026-05-06 19:39 60.44232 -155.21280 37058 ft 513 kts 76°
2026-05-06 19:40 60.45752 -155.07146 37051 ft 513 kts 76°
2026-05-06 19:40 60.47208 -154.93454 37073 ft 513 kts 76°
2026-05-06 19:41 60.48697 -154.79296 37056 ft 513 kts 77°
2026-05-06 19:41 60.50190 -154.65154 37066 ft 513 kts 75°
2026-05-06 19:42 60.51999 -154.51148 37037 ft 512 kts 73°
2026-05-06 19:42 60.53935 -154.37193 37042 ft 512 kts 73°
2026-05-06 19:43 60.55805 -154.23307 37054 ft 512 kts 73°
2026-05-06 19:43 60.57635 -154.09289 37055 ft 512 kts 73°
2026-05-06 19:44 60.59391 -153.95620 37067 ft 512 kts 74°
2026-05-06 19:44 60.61183 -153.81565 37032 ft 513 kts 74°
2026-05-06 19:45 60.62964 -153.67494 37036 ft 513 kts 74°
2026-05-06 19:45 60.64730 -153.53404 37036 ft 513 kts 74°
2026-05-06 19:46 60.66451 -153.39543 36641 ft 499 kts 75°
2026-05-06 19:46 60.67020 -153.34923 36200 ft 499 kts 74°
2026-05-06 19:46 60.68144 -153.25774 35014 ft 505 kts 74°
2026-05-06 19:47 60.68998 -153.18787 34071 ft 510 kts 74°
2026-05-06 19:47 60.69579 -153.14004 33317 ft 513 kts 74°
2026-05-06 19:47 60.70426 -153.07010 32303 ft 515 kts 74°
2026-05-06 19:47 60.71278 -152.99922 31409 ft 515 kts 74°
2026-05-06 19:48 60.72085 -152.93181 30625 ft 513 kts 73°
2026-05-06 19:48 60.72927 -152.86132 29870 ft 509 kts 73°
2026-05-06 19:48 60.73757 -152.79148 29137 ft 502 kts 73°
2026-05-06 19:48 60.74571 -152.72274 28513 ft 494 kts 73°
2026-05-06 19:49 60.75372 -152.65483 27853 ft 488 kts 73°
2026-05-06 19:49 60.76161 -152.58771 27175 ft 482 kts 73°
2026-05-06 19:49 60.76939 -152.52131 26516 ft 477 kts 73°
2026-05-06 19:49 60.77704 -152.45552 25895 ft 472 kts 73°
2026-05-06 19:50 60.78458 -152.39024 25279 ft 467 kts 74°
2026-05-06 19:50 60.79198 -152.32589 24681 ft 463 kts 74°
2026-05-06 19:50 60.79931 -152.26211 24095 ft 453 kts 74°
2026-05-06 19:50 60.80631 -152.20072 22934 ft 434 kts 74°
2026-05-06 19:51 60.81312 -152.14044 21608 ft 438 kts 76°
2026-05-06 19:51 60.81936 -152.08005 20926 ft 436 kts 77°
2026-05-06 19:51 60.82527 -152.01958 20503 ft 428 kts 78°
2026-05-06 19:51 60.83072 -151.96289 20094 ft 422 kts 78°
2026-05-06 19:52 60.83637 -151.90402 19594 ft 418 kts 79°
2026-05-06 19:52 60.84198 -151.84575 19059 ft 415 kts 79°
2026-05-06 19:52 60.84757 -151.78782 18526 ft 412 kts 79°
2026-05-06 19:52 60.85310 -151.73043 17975 ft 408 kts 79°
2026-05-06 19:53 60.85849 -151.67427 17268 ft 391 kts 79°
2026-05-06 19:53 60.86369 -151.61996 16209 ft 388 kts 79°
2026-05-06 19:53 60.86881 -151.56622 15757 ft 382 kts 79°
2026-05-06 19:53 60.87381 -151.51358 15242 ft 379 kts 79°
2026-05-06 19:54 60.87909 -151.46087 14727 ft 374 kts 76°
2026-05-06 19:54 60.88743 -151.41024 14234 ft 371 kts 68°
2026-05-06 19:54 60.89750 -151.36147 13709 ft 368 kts 66°
2026-05-06 19:54 60.90763 -151.31378 13477 ft 357 kts 67°
2026-05-06 19:55 60.91703 -151.26829 13311 ft 344 kts 68°
2026-05-06 19:55 60.92599 -151.22354 13172 ft 332 kts 68°
2026-05-06 19:55 60.93445 -151.18028 13022 ft 320 kts 68°
2026-05-06 19:55 60.94253 -151.13858 12908 ft 307 kts 69°
2026-05-06 19:56 60.95029 -151.09841 12778 ft 297 kts 69°
2026-05-06 19:56 60.95734 -151.05867 12491 ft 292 kts 72°
2026-05-06 19:56 60.96340 -151.01972 12195 ft 288 kts 73°
2026-05-06 19:56 60.96909 -150.98225 11889 ft 286 kts 73°
2026-05-06 19:57 60.97507 -150.94292 11603 ft 290 kts 73°
2026-05-06 19:57 60.98121 -150.90301 11294 ft 295 kts 73°
2026-05-06 19:57 60.98745 -150.86258 10975 ft 296 kts 73°
2026-05-06 19:57 60.99368 -150.82227 10644 ft 294 kts 73°
2026-05-06 19:58 60.99983 -150.78229 10342 ft 291 kts 74°
2026-05-06 19:58 61.00488 -150.74290 10117 ft 285 kts 77°
2026-05-06 19:58 61.00933 -150.70384 9971 ft 277 kts 78°
2026-05-06 19:58 61.01366 -150.66526 9648 ft 275 kts 78°
2026-05-06 19:59 61.01796 -150.62703 9331 ft 272 kts 78°
2026-05-06 19:59 61.02222 -150.58928 9039 ft 268 kts 78°
2026-05-06 19:59 61.02645 -150.55202 8759 ft 264 kts 78°
2026-05-06 19:59 61.03061 -150.51539 8469 ft 260 kts 78°
2026-05-06 20:00 61.03471 -150.47934 8184 ft 257 kts 78°
2026-05-06 20:00 61.03874 -150.44397 7934 ft 257 kts 78°
2026-05-06 20:00 61.04286 -150.40762 7664 ft 263 kts 78°
2026-05-06 20:00 61.04706 -150.37050 7376 ft 267 kts 78°
2026-05-06 20:01 61.05195 -150.33395 7048 ft 260 kts 65°
2026-05-06 20:01 61.06323 -150.30560 6747 ft 258 kts 36°
2026-05-06 20:01 61.07867 -150.28667 6464 ft 262 kts 30°
2026-05-06 20:01 61.09487 -150.26778 6130 ft 269 kts 30°
2026-05-06 20:02 61.11120 -150.24853 5772 ft 270 kts 30°
2026-05-06 20:02 61.12730 -150.22947 5434 ft 267 kts 30°
2026-05-06 20:02 61.14344 -150.21100 5097 ft 260 kts 23°
2026-05-06 20:02 61.16087 -150.20503 5024 ft 253 kts 354°
2026-05-06 20:03 61.17824 -150.21191 5016 ft 259 kts 347°
2026-05-06 20:03 61.19618 -150.21980 5015 ft 265 kts 347°
2026-05-06 20:03 61.21426 -150.22754 4994 ft 261 kts 347°
2026-05-06 20:03 61.23131 -150.23482 4974 ft 246 kts 347°
2026-05-06 20:04 61.24762 -150.24213 4979 ft 233 kts 345°
2026-05-06 20:04 61.26328 -150.25089 4985 ft 231 kts 343°
2026-05-06 20:04 61.27868 -150.25981 4978 ft 229 kts 343°
2026-05-06 20:04 61.29404 -150.26862 4999 ft 228 kts 343°
2026-05-06 20:05 61.30932 -150.27732 5001 ft 228 kts 343°
2026-05-06 20:05 61.32444 -150.28590 5009 ft 228 kts 343°
2026-05-06 20:05 61.33982 -150.29463 5009 ft 230 kts 343°
2026-05-06 20:05 61.35556 -150.30358 5010 ft 233 kts 343°
2026-05-06 20:06 61.37099 -150.31277 4849 ft 235 kts 346°
2026-05-06 20:06 61.38732 -150.31671 4404 ft 233 kts 357°
2026-05-06 20:06 61.40335 -150.31513 4055 ft 229 kts 14°
2026-05-06 20:06 61.41714 -150.29953 3671 ft 228 kts 49°
2026-05-06 20:07 61.42448 -150.27089 3332 ft 226 kts 81°
2026-05-06 20:07 61.42339 -150.23863 3005 ft 222 kts 109°
2026-05-06 20:07 61.41665 -150.21073 2993 ft 215 kts 129°
2026-05-06 20:07 61.40688 -150.18709 3002 ft 214 kts 134°
2026-05-06 20:08 61.39682 -150.16449 2980 ft 211 kts 134°
2026-05-06 20:08 61.38685 -150.14226 2989 ft 209 kts 134°
2026-05-06 20:08 61.37646 -150.12122 2971 ft 207 kts 149°
2026-05-06 20:08 61.36336 -150.10933 3010 ft 210 kts 160°
2026-05-06 20:09 61.34945 -150.09936 2989 ft 211 kts 163°
2026-05-06 20:09 61.33547 -150.09098 2974 ft 207 kts 165°
2026-05-06 20:09 61.32200 -150.08335 2949 ft 195 kts 165°
2026-05-06 20:09 61.30906 -150.07606 2644 ft 190 kts 165°
2026-05-06 20:10 61.29673 -150.06911 2376 ft 176 kts 165°
2026-05-06 20:10 61.28536 -150.06269 2138 ft 160 kts 166°
2026-05-06 20:10 61.27514 -150.05692 1875 ft 142 kts 166°
2026-05-06 20:10 61.26598 -150.05176 1672 ft 134 kts 167°
2026-05-06 20:11 61.25676 -150.04658 1494 ft 140 kts 166°
2026-05-06 20:11 61.24734 -150.04126 1270 ft 140 kts 166°
2026-05-06 20:11 61.23799 -150.03600 1053 ft 138 kts 167°
2026-05-06 20:11 61.22873 -150.03080 844 ft 138 kts 166°
2026-05-06 20:12 61.21961 -150.02557 650 ft 134 kts 166°
2026-05-06 20:12 61.21054 -150.02043 414 ft 135 kts 165°
2026-05-06 20:12 61.20157 -150.01557 220 ft 139 kts 164°
2026-05-06 20:12 61.19227 -150.01037 133 ft 130 kts 165°
2026-05-06 20:13 61.18446 -150.00607 121 ft 100 kts 165°
2026-05-06 20:13 61.17971 -150.00325 122 ft 40 kts 153°
2026-05-06 20:13 61.17817 -150.00079 108 ft 12 kts 133°
2026-05-06 20:13 61.17811 -149.99951 120 ft 10 kts 46°
2026-05-06 20:14 61.17883 -149.99938 122 ft 11 kts 345°
2026-05-06 20:14 61.17958 -149.99980 129 ft 11 kts 345°
2026-05-06 20:14 61.18034 -150.00023 103 ft 11 kts 345°
2026-05-06 20:14 61.18133 -150.00077 105 ft 21 kts 345°
2026-05-06 20:15 61.18301 -150.00172 118 ft 28 kts 345°
2026-05-06 20:15 61.18487 -150.00276 123 ft 28 kts 345°
2026-05-06 20:15 61.18648 -150.00361 124 ft 19 kts 355°
2026-05-06 20:15 61.18712 -150.00179 125 ft 21 kts 75°
2026-05-06 20:16 61.18779 -149.99990 129 ft 14 kts
2026-05-06 20:16 61.18873 -150.00042 138 ft 10 kts 340°
2026-05-06 20:16 61.18878 -150.00081 142 ft 4 kts 267°
2026-05-06 20:16 61.18864 -150.00183 117 ft 8 kts 254°
2026-05-06 20:17 61.18863 -150.00188 118 ft 0 kts 254°